FW1542 Weather Reports


Display with metric or nautical units.
time (UTC)temp
F
wind
direction
speed
MPH
gust
MPH
rain 1hr
in
rain 24hr
in
rain mn
in
humidity
%
barometer
mb
20260504224547 81 172 6.0 14.0 0.00 0.00 0.00 67 1009.6
20260504224512 81 155 7.0 15.0 0.00 0.00 0.00 67 1012.2
20260504223043 81 175 3.0 10.0 0.00 0.00 0.00 66 1009.7
20260504223012 81 174 3.0 9.0 0.00 0.00 0.00 67 1012.3
20260504221543 80 179 5.0 13.0 0.00 0.00 0.00 67 1009.8
20260504221512 80 198 4.0 12.0 0.00 0.00 0.00 67 1012.3
20260504220045 81 175 4.0 16.0 0.00 0.00 0.00 65 1009.9
20260504220011 81 159 4.0 15.0 0.00 0.00 0.00 66 1012.4
20260504214551 81 124 5.0 12.0 0.00 0.00 0.00 66 1009.7
20260504214508 81 158 6.0 11.0 0.00 0.00 0.00 67 1012.2
20260504213042 80 192 5.0 14.0 0.00 0.00 0.00 67 1010.0
20260504213005 80 167 5.0 12.0 0.00 0.00 0.00 68 1012.8
20260504211546 79 192 6.0 14.0 0.00 0.00 0.00 67 1010.5
20260504211508 79 176 5.0 13.0 0.00 0.00 0.00 68 1013.0
20260504210107 80 159 5.0 12.0 0.00 0.00 0.00 69 1013.2
20260504210055 80 113 3.0 14.0 0.00 0.00 0.00 68 1010.7
20260504204620 79 206 3.0 11.0 0.00 0.00 0.00 68 1013.6
20260504204607 79 206 4.0 14.0 0.00 0.00 0.00 68 1010.9
20260504203131 79 207 3.0 12.0 0.00 0.00 0.00 69 1013.9
20260504203104 79 153 4.0 12.0 0.00 0.00 0.00 68 1011.2
20260504201556 79 241 5.0 12.0 0.00 0.00 0.00 68 1014.0
20260504201546 79 169 6.0 15.0 0.00 0.00 0.00 68 1011.5
20260504200054 79 185 4.0 13.0 0.00 0.00 0.00 69 1014.4
20260504200049 79 196 4.0 14.0 0.00 0.00 0.00 68 1011.6
20260504194551 79 208 4.0 12.0 0.00 0.00 0.00 69 1014.5
20260504194542 79 207 3.0 12.0 0.00 0.00 0.00 69 1011.8
20260504193051 79 238 4.0 11.0 0.00 0.00 0.00 69 1014.7
20260504193043 79 229 3.0 13.0 0.00 0.00 0.00 69 1011.9
20260504191553 79 192 3.0 11.0 0.00 0.00 0.00 70 1014.9
20260504191542 79 202 3.0 12.0 0.00 0.00 0.00 69 1012.0
20260504190053 78 153 5.0 12.0 0.00 0.00 0.00 69 1012.1
20260504184546 78 180 4.0 15.0 0.00 0.00 0.00 68 1012.2
20260504183050 78 220 4.0 15.0 0.00 0.00 0.00 69 1012.7
20260504183043 79 198 6.0 13.0 0.00 0.00 0.00 69 1015.4
20260504181541 77 170 6.0 15.0 0.00 0.00 0.00 70 1012.6
20260504180053 76 194 7.0 13.0 0.00 0.00 0.00 72 1013.1
20260504180038 76 219 6.0 12.0 0.00 0.00 0.00 73 1015.7
20260504174541 77 216 5.0 12.0 0.00 0.00 0.00 71 1013.1
20260504174538 77 216 4.0 12.0 0.00 0.00 0.00 71 1015.7
20260504173051 76 188 4.0 11.0 0.00 0.00 0.00 72 1013.2
20260504173039 76 208 5.0 11.0 0.00 0.00 0.00 72 1015.9
20260504171545 76 183 4.0 14.0 0.00 0.00 0.00 72 1013.5
20260504171537 76 183 5.0 14.0 0.00 0.00 0.00 73 1016.3
20260504081545 64 216 3.0 10.0 0.00 0.00 0.00 79 1015.0
20260504081533 64 216 4.0 9.0 0.00 0.00 0.00 80 1017.9
20260504044558 68 157 5.0 12.0 0.00 0.00 0.00 70 1019.9
20260504044546 67 132 5.0 13.0 0.00 0.00 0.00 69 1017.0
20260504043100 68 140 6.0 13.0 0.00 0.00 0.00 68 1019.8
20260504043056 68 117 6.0 14.0 0.00 0.00 0.00 67 1016.9
20260504041604 69 146 6.0 14.0 0.00 0.00 0.00 67 1019.8
20260504041549 69 124 6.0 14.0 0.00 0.00 0.00 66 1017.0
20260504040056 69 147 6.0 14.0 0.00 0.00 0.00 65 1019.9
20260504040046 69 139 6.0 15.0 0.00 0.00 0.00 64 1017.1
20260504034613 70 148 6.0 14.0 0.00 0.00 0.00 64 1019.9
20260504034548 70 131 6.0 14.0 0.00 0.00 0.00 63 1017.0
20260504033056 70 151 5.0 13.0 0.00 0.00 0.00 63 1020.0
20260504033043 70 110 5.0 13.0 0.00 0.00 0.00 62 1017.0
20260504031556 70 166 5.0 9.0 0.00 0.00 0.00 62 1019.9
20260504031544 70 174 4.0 10.0 0.00 0.00 0.00 62 1017.0
20260504030054 69 124 4.0 9.0 0.00 0.00 0.00 61 1019.8
20260504030045 69 144 4.0 10.0 0.00 0.00 0.00 61 1016.8
20260504024555 68 84 5.0 9.0 0.00 0.00 0.00 60 1019.6
20260504024546 68 171 5.0 9.0 0.00 0.00 0.00 59 1016.7
20260504023054 69 113 2.0 4.0 0.00 0.00 0.00 58 1019.6
20260504023043 69 113 2.0 4.0 0.00 0.00 0.00 58 1016.7
20260504021554 70 113 1.0 4.0 0.00 0.00 0.00 57 1019.7
20260504021541 70 114 1.0 4.0 0.00 0.00 0.00 56 1016.7
20260504020110 71 126 2.0 4.0 0.00 0.00 0.00 55 1019.6
20260504020044 71 126 2.0 4.0 0.00 0.00 0.00 55 1016.6
20260504014558 72 129 1.0 3.0 0.00 0.00 0.00 53 1019.5
20260504014543 72 129 1.0 4.0 0.00 0.00 0.00 53 1016.5
20260504013111 73 88 2.0 7.0 0.00 0.00 0.00 52 1019.2
20260504013101 73 88 2.0 7.0 0.00 0.00 0.00 51 1016.1
20260504011552 74 125 3.0 7.0 0.00 0.00 0.00 49 1019.2
20260504011543 74 159 3.0 7.0 0.00 0.00 0.00 48 1016.1
20260504010051 74 144 4.0 8.0 0.00 0.00 0.00 48 1019.2
20260504010043 74 106 4.0 8.0 0.00 0.00 0.00 48 1016.2
20260504004551 75 174 3.0 9.0 0.00 0.00 0.00 47 1019.2
20260504004541 75 174 3.0 10.0 0.00 0.00 0.00 47 1016.1
20260504003049 75 140 5.0 10.0 0.00 0.00 0.00 47 1019.3
20260504003039 75 144 5.0 12.0 0.00 0.00 0.00 46 1016.2
20260504001551 76 148 4.0 9.0 0.00 0.00 0.00 48 1019.2
20260504001547 76 163 4.0 9.0 0.00 0.00 0.00 47 1016.3
20260504000046 76 132 4.0 11.0 0.00 0.00 0.00 47 1019.4
20260504000041 76 126 3.0 14.0 0.00 0.00 0.00 48 1016.3
20260503234546 76 183 5.0 11.0 0.00 0.00 0.00 47 1019.5
20260503234543 76 167 4.0 11.0 0.00 0.00 0.00 46 1016.5
20260503233050 76 142 7.0 14.0 0.00 0.00 0.00 45 1016.7
20260503233045 76 146 7.0 14.0 0.00 0.00 0.00 46 1019.7
20260503231543 77 148 7.0 12.0 0.00 0.00 0.00 45 1019.8
20260503230044 77 102 7.0 13.0 0.00 0.00 0.00 44 1017.0